[[{"header":{"parameterUnit":"m.s-1","parameterCategory":1,"la1":30.2991,"la2":30.254,"lo1":-89.0895,"lo2":-89.0444,"dy":0.0017,"dx":0.0017,"nx":28,"ny":28,"refTime":"2025-01-07T03:00:00:Z","depth":0,"parameterNumber":2,"parameterNumberName":"U-component_of_WINDS"},"data":[0,0,0,0,0,0,0,0,0,0,0,0,0,0,0,0,0,0,0,0,0,0,0,0,0,0,0,0,0,0,0,0,0,0,0,0,0,0,0,0,0,0,0,0,0,0,0,0,0,0,0,0,0,0,0,0,0,0,4.1389,4.1389,0,4.1424,4.1424,4.1425,4.1386,4.1384,4.1383,4.1381,4.1416,4.1419,4.1421,0,0,0,0,0,0,0,0,0,0,0,0,0,4.1288,4.129,4.1389,4.1389,4.139,4.1424,4.1424,4.1425,4.1386,4.1384,4.1382,4.1381,4.1416,4.1418,4.1421,0,0,0,0,0,0,0,0,0,0,0,0,0,4.1329,4.1291,4.1389,4.1374,4.1373,4.1424,4.1424,4.1425,4.1386,4.1384,4.1382,4.138,4.1415,4.1418,4.1421,4.1487,0,0,4.1432,4.1434,0,0,0,0,0,0,0,0,4.1326,4.1332,4.1376,4.1375,4.1374,4.1398,4.1402,4.1446,4.1387,4.1381,4.1381,4.1379,4.1412,4.1416,4.1427,4.1489,4.1491,4.1432,4.1434,4.1436,4.1437,0,0,0,0,0,0,0,4.1324,4.1331,4.1403,4.1377,4.1376,4.1366,4.137,4.141,4.1409,4.1382,4.1379,4.1384,4.1411,4.1424,4.1428,4.1491,4.1432,4.1435,4.1437,4.1439,4.1611,4.1614,0,0,0,0,0,0,4.1323,4.1329,4.1402,4.1404,4.1345,4.137,4.1374,4.1393,4.1408,4.1408,4.1386,4.1382,4.1419,4.1424,4.1429,4.1508,4.1436,4.1439,4.1441,4.1609,4.1612,4.1615,0,0,0,0,0,0,4.1321,4.1329,4.14,4.1365,4.1374,4.1374,4.1396,4.1395,4.1407,4.1411,4.1411,4.1399,4.1417,4.1424,4.1474,4.1509,4.1441,4.1444,4.1606,4.161,4.1613,4.1667,0,0,0,0,0,0,4.1318,4.1329,4.1354,4.1366,4.1376,4.1444,4.1398,4.1397,4.1413,4.1409,4.1423,4.1424,4.1416,4.1469,4.1477,4.1512,4.1447,4.1603,4.1608,4.1612,4.1662,4.1672,4.1681,0,0,0,0,0,4.1314,4.1367,4.1355,4.1364,4.1407,4.1447,4.1452,4.1443,4.1416,4.1442,4.1445,4.1423,4.1504,4.1474,4.1483,4.152,4.16,4.1606,4.1612,4.1658,4.167,4.168,0,0,0,0,0,0,4.1357,4.1368,4.1355,4.1413,4.1429,4.144,4.1471,4.1456,4.1479,4.1474,4.1461,4.1465,4.1518,4.1524,4.1491,4.1586,4.1548,4.1556,4.158,4.1591,4.1601,4.1598,4.145,0,0,0,0,0,4.1373,4.1405,4.1413,4.1463,4.1472,4.147,4.1487,4.1479,4.1495,4.1502,4.1508,4.1524,4.1554,4.1573,4.16,4.1663,4.1666,4.1693,4.1702,4.171,4.1717,4.1752,4.1764,4.1633,4.1633,4.1633,0,0,4.1407,4.1417,4.1437,4.1472,4.1483,4.1517,4.1476,4.1512,4.1537,4.1507,4.1555,4.1561,4.1578,4.1636,4.1661,4.1642,4.1754,4.1717,4.1723,4.1726,4.1759,4.1772,4.1783,4.1637,4.1636,4.1636,0,0,4.1485,4.1495,4.1539,4.1552,4.1571,4.157,4.1581,4.1594,4.1597,4.1645,4.1624,4.1653,4.1703,4.1717,4.1731,4.1818,4.18,4.1827,4.1875,4.191,4.1921,4.193,4.1962,4.1973,4.1834,4.1834,4.1834,0,4.1524,4.1573,4.1564,4.1602,4.1619,4.1594,4.1639,4.1652,4.1679,4.1691,4.1669,4.1734,4.1743,4.1805,4.1826,4.1838,4.185,4.1825,4.192,4.1929,4.1937,4.1968,4.1979,4.1837,4.1837,4.1837,4.1836,0,4.1621,4.1656,4.1689,4.1716,4.1737,4.1778,4.1776,4.1797,4.1788,4.179,4.184,4.1852,4.1882,4.1896,4.1886,4.1956,4.1944,4.1922,4.1883,4.1953,4.1982,4.1993,4.1842,4.1841,4.184,4.1839,0,0,4.1725,4.1748,4.1761,4.1774,4.1794,4.1821,4.1862,4.1892,4.1911,4.1931,4.1966,4.201,4.1991,4.2006,4.1999,4.2029,4.2099,4.2003,4.2003,4.2021,4.2178,4.2195,4.2208,4.2087,4.2089,4.2091,4.2177,0,4.1804,4.1876,4.187,4.1938,4.197,4.1949,4.1985,4.2002,4.2005,4.2034,4.2037,4.2069,4.204,4.205,4.2079,4.2084,4.213,4.2078,4.212,4.2121,4.2116,4.2223,4.224,4.232,4.2188,4.2189,4.2191,0,4.1905,4.193,4.2002,4.2019,4.2032,4.2065,4.2093,4.2121,4.214,4.214,4.2159,4.2147,4.219,4.2151,4.221,4.2175,4.2192,4.2197,4.22,4.2203,4.216,4.2229,4.2345,4.2357,4.2208,4.2206,4.2205,0,4.1975,4.2026,4.2076,4.2088,4.2109,4.2132,4.2142,4.2159,4.2178,4.2203,4.2216,4.2245,4.2261,4.2284,4.2281,4.2253,4.2341,4.2302,4.2343,4.2343,4.2362,4.2361,4.2483,4.2373,4.2373,4.2373,4.2373,0,4.2064,4.2108,4.2108,4.2138,4.2189,4.2182,4.2232,4.2239,4.2255,4.2287,4.227,4.2301,4.2295,4.2326,4.2323,4.2373,4.238,4.2382,4.2381,4.2384,4.2384,4.2394,4.2389,4.2376,4.2375,4.2375,4.2374,0,4.2149,4.215,4.2204,4.222,4.2225,4.2262,4.2276,4.2305,4.2308,4.2349,4.2359,4.2363,4.2399,4.2398,4.2439,4.2437,4.2499,4.2491,4.2492,4.2491,4.2532,4.2528,4.2665,4.2683,4.2562,4.2563,4.2564,0,4.2206,4.224,4.2261,4.2281,4.2293,4.2327,4.2347,4.2342,4.2364,4.2389,4.2416,4.2451,4.2478,4.2536,4.2543,4.2574,4.2567,4.2613,4.2572,4.2574,4.2569,4.2567,4.257,4.2621,4.2622,4.2623,4.2624,0,4.2306,4.2306,4.2335,4.2366,4.2391,4.2414,4.2436,4.2454,4.2452,4.2477,4.2514,4.2536,4.2578,4.2612,4.2643,4.2653,4.2639,4.2638,4.2649,4.2652,4.2651,4.2653,4.2515,4.2634,4.2633,4.2632,4.2632,4.2631,4.2379,4.2409,4.2429,4.2463,4.248,4.2501,4.253,4.2538,4.2568,4.2603,4.2598,4.264,4.266,4.27,4.2713,4.2746,4.273,4.2746,4.275,4.2754,4.2759,4.2647,4.2752,4.2751,4.2751,4.2751,4.2751,0,4.2479,4.2491,4.2523,4.2555,4.2582,4.2567,4.2591,4.2615,4.2652,4.2672,4.27,4.2743,4.2778,4.2789,4.2822,4.2846,4.284,4.2855,4.2853,4.2856,4.2771,4.2758,4.2859,4.2859,4.2859,4.2859,4.2859,4.2859,4.2534,4.2585,4.2587,4.2647,4.2659,4.2699,4.2715,4.2735,4.2751,4.2801,4.2829,4.2836,4.2853,4.2888,4.292,4.2922,4.2935,4.2953,4.2952,4.2873,4.2862,4.2851,4.2839,4.2955,4.2956,4.3034,4.3035,4.3036]},{"header":{"parameterUnit":"m.s-1","parameterCategory":1,"la1":30.2991,"la2":30.254,"lo1":-89.0895,"lo2":-89.0444,"dy":0.0017,"dx":0.0017,"nx":28,"ny":28,"refTime":"2025-01-07T03:00:00:Z","depth":0,"parameterNumber":3,"parameterNumberName":"V-component_of_WINDS"},"data":[0,0,0,0,0,0,0,0,0,0,0,0,0,0,0,0,0,0,0,0,0,0,0,0,0,0,0,0,0,0,0,0,0,0,0,0,0,0,0,0,0,0,0,0,0,0,0,0,0,0,0,0,0,0,0,0,0,0,-7.8825,-7.8827,0,-7.8971,-7.8973,-7.8975,-7.8954,-7.8952,-7.895,-7.8947,-7.9091,-7.9097,-7.9103,0,0,0,0,0,0,0,0,0,0,0,0,0,-7.8525,-7.853,-7.8825,-7.8827,-7.8829,-7.8971,-7.8973,-7.8975,-7.8955,-7.8952,-7.8949,-7.8946,-7.9089,-7.9096,-7.9104,0,0,0,0,0,0,0,0,0,0,0,0,0,-7.8661,-7.8532,-7.8825,-7.8836,-7.8838,-7.8971,-7.8973,-7.8976,-7.8956,-7.8952,-7.8948,-7.8945,-7.9087,-7.9096,-7.9105,-7.9234,0,0,-7.9133,-7.9137,0,0,0,0,0,0,0,0,-7.8654,-7.8672,-7.8833,-7.8835,-7.8839,-7.8941,-7.892,-7.9062,-7.8956,-7.8911,-7.8947,-7.8943,-7.9044,-7.9056,-7.9091,-7.924,-7.9246,-7.9133,-7.9139,-7.9143,-7.9145,0,0,0,0,0,0,0,-7.8644,-7.8666,-7.8883,-7.8835,-7.8839,-7.8832,-7.8848,-7.8947,-7.8996,-7.8915,-7.8913,-7.8931,-7.9045,-7.9083,-7.9095,-7.9249,-7.9133,-7.9141,-7.9147,-7.915,-7.9512,-7.9516,0,0,0,0,0,0,-7.8632,-7.8658,-7.8878,-7.8887,-7.8735,-7.8841,-7.8858,-7.8912,-7.8995,-7.9004,-7.8934,-7.893,-7.9069,-7.9084,-7.91,-7.9257,-7.9143,-7.9151,-7.9157,-7.9508,-7.9513,-7.9517,0,0,0,0,0,0,-7.8626,-7.8652,-7.8872,-7.8773,-7.88,-7.885,-7.891,-7.8917,-7.8955,-7.901,-7.9018,-7.8965,-7.9067,-7.9087,-7.9201,-7.9262,-7.9155,-7.9164,-7.9503,-7.9509,-7.9515,-7.9572,0,0,0,0,0,0,-7.8617,-7.865,-7.87,-7.8774,-7.8806,-7.8973,-7.8914,-7.8922,-7.8971,-7.8967,-7.904,-7.9049,-7.9065,-7.9188,-7.921,-7.9272,-7.9171,-7.9498,-7.9506,-7.9513,-7.9565,-7.958,-7.9592,0,0,0,0,0,-7.8607,-7.8709,-7.8703,-7.8729,-7.887,-7.8976,-7.8994,-7.9013,-7.8976,-7.9027,-7.9062,-7.9046,-7.9252,-7.92,-7.9225,-7.9291,-7.9494,-7.9504,-7.9513,-7.9559,-7.9577,-7.9592,0,0,0,0,0,0,-7.8638,-7.8718,-7.8713,-7.8842,-7.8903,-7.8973,-7.9037,-7.9031,-7.9102,-7.9094,-7.9113,-7.913,-7.9246,-7.928,-7.922,-7.9421,-7.9368,-7.9382,-7.9394,-7.9412,-7.9425,-7.9414,-7.9178,0,0,0,0,0,-7.8661,-7.8742,-7.8807,-7.8915,-7.8946,-7.8986,-7.9033,-7.9043,-7.9106,-7.9131,-7.9175,-7.9235,-7.9313,-7.9364,-7.9439,-7.957,-7.9586,-7.9628,-7.9641,-7.9652,-7.9665,-7.9738,-7.9757,-7.9548,-7.9548,-7.9548,0,0,-7.8707,-7.8761,-7.881,-7.8923,-7.8971,-7.9054,-7.9008,-7.9097,-7.9159,-7.9144,-7.9256,-7.929,-7.9358,-7.9482,-7.9539,-7.9514,-7.9726,-7.9664,-7.9672,-7.9679,-7.9749,-7.9769,-7.9787,-7.9554,-7.9553,-7.9552,0,0,-7.8834,-7.8883,-7.8979,-7.9029,-7.9104,-7.913,-7.9153,-7.9225,-7.9248,-7.9361,-7.9353,-7.9425,-7.9559,-7.9609,-7.9652,-7.9801,-7.9789,-7.9824,-7.9894,-7.9965,-7.9982,-7.9996,-8.005,-8.0069,-7.9837,-7.9837,-7.9837,0,-7.8881,-7.9007,-7.9028,-7.912,-7.917,-7.9163,-7.926,-7.9307,-7.9401,-7.9435,-7.9406,-7.9577,-7.9622,-7.9758,-7.9795,-7.9829,-7.9856,-7.9816,-7.9978,-7.9993,-8.0007,-8.0058,-8.0078,-7.9841,-7.984,-7.984,-7.9839,0,-7.9063,-7.915,-7.9219,-7.9313,-7.9371,-7.9464,-7.9499,-7.9554,-7.9559,-7.9589,-7.9704,-7.9759,-7.9846,-7.9879,-7.9883,-8.0016,-7.9999,-7.9974,-7.9921,-8.0031,-8.0079,-8.0099,-7.9846,-7.9845,-7.9844,-7.9843,0,0,-7.9211,-7.9319,-7.9344,-7.9387,-7.947,-7.9538,-7.9631,-7.9719,-7.9766,-7.9832,-7.9911,-8.0026,-8.0005,-8.0053,-8.0064,-8.0126,-8.0242,-8.0094,-8.0096,-8.012,-8.0392,-8.0411,-8.0433,-8.0235,-8.0239,-8.0242,-8.0387,0,-7.9347,-7.9515,-7.9537,-7.9685,-7.9767,-7.9763,-7.9845,-7.9904,-7.9934,-8.0007,-8.004,-8.0122,-8.0087,-8.0117,-8.0178,-8.0215,-8.0297,-8.0204,-8.0307,-8.0311,-8.0291,-8.0458,-8.0478,-8.0612,-8.0406,-8.0409,-8.0411,0,-7.9527,-7.9601,-7.9758,-7.9832,-7.9867,-7.994,-8.0023,-8.0093,-8.0161,-8.0178,-8.0235,-8.0238,-8.0334,-8.0278,-8.0411,-8.0348,-8.0391,-8.0416,-8.0421,-8.0431,-8.0368,-8.0473,-8.0655,-8.0675,-8.0441,-8.0439,-8.0437,0,-7.9621,-7.976,-7.9872,-7.9909,-7.9998,-8.005,-8.0089,-8.0153,-8.0205,-8.0277,-8.0311,-8.0392,-8.0436,-8.0499,-8.0524,-8.048,-8.0655,-8.0601,-8.0672,-8.0672,-8.0709,-8.0706,-8.09,-8.0737,-8.0736,-8.0736,-8.0736,0,-7.977,-7.9866,-7.9916,-7.9985,-8.0093,-8.0118,-8.0224,-8.026,-8.0318,-8.0393,-8.0394,-8.0464,-8.0493,-8.0568,-8.0588,-8.0695,-8.0715,-8.0732,-8.0736,-8.0732,-8.073,-8.076,-8.0752,-8.0741,-8.074,-8.0739,-8.0738,0,-7.9893,-7.993,-8.0053,-8.0128,-8.0149,-8.0225,-8.0289,-8.0356,-8.0387,-8.0482,-8.0506,-8.0554,-8.0642,-8.0674,-8.078,-8.0794,-8.0919,-8.0915,-8.0897,-8.0898,-8.0967,-8.0961,-8.1188,-8.1219,-8.1035,-8.1037,-8.1038,0,-7.9985,-8.006,-8.0144,-8.0196,-8.0238,-8.0321,-8.0375,-8.0403,-8.0458,-8.0542,-8.0599,-8.0687,-8.076,-8.0901,-8.0944,-8.1026,-8.1024,-8.1099,-8.1036,-8.1031,-8.1026,-8.1021,-8.1029,-8.111,-8.1112,-8.1113,-8.1114,0,-8.0146,-8.0162,-8.024,-8.0326,-8.0391,-8.0459,-8.0525,-8.0567,-8.0604,-8.0667,-8.0759,-8.0816,-8.0926,-8.1014,-8.1099,-8.1137,-8.1132,-8.1134,-8.1155,-8.1151,-8.1138,-8.1147,-8.0929,-8.1128,-8.1127,-8.1126,-8.1125,-8.1125,-8.0257,-8.0324,-8.0395,-8.0483,-8.0536,-8.0598,-8.0665,-8.0706,-8.0784,-8.0878,-8.0889,-8.0988,-8.1054,-8.1168,-8.1211,-8.1288,-8.1267,-8.1297,-8.1305,-8.1312,-8.1318,-8.1127,-8.1303,-8.1303,-8.1302,-8.1302,-8.1302,0,-8.0419,-8.0465,-8.0545,-8.064,-8.0709,-8.0701,-8.0774,-8.0832,-8.092,-8.0983,-8.1056,-8.1162,-8.1248,-8.1299,-8.1385,-8.1437,-8.1437,-8.1459,-8.1455,-8.1464,-8.1331,-8.1304,-8.1458,-8.1458,-8.1457,-8.1457,-8.1457,-8.1457,-8.0511,-8.0624,-8.0648,-8.0788,-8.0832,-8.0932,-8.0974,-8.1032,-8.1083,-8.1203,-8.1275,-8.1309,-8.1367,-8.1458,-8.1536,-8.1549,-8.1581,-8.1605,-8.1615,-8.1489,-8.1473,-8.1458,-8.1433,-8.1611,-8.1611,-8.1743,-8.1744,-8.1745]}]]